Location: Smyrna_Hopewell
(35.6500°N, 81.0330°W)
Time: 06:28:17
(UTC-04:00)

Cosmos 2221 - Visible Passes

Search period start: 26 July 2017 00:00
Search period end: 05 August 2017 00:00
Orbit: 594 x 616 km, 82.5° (Epoch: 25 July)

Date Brightness Start Highest point End Pass type
(mag) Time Alt. Az. Time Alt. Az. Time Alt. Az.
28 Jul 6.1 05:22:12 10° E 05:22:32 10° E 05:22:52 10° E visible
29 Jul 5.4 05:32:23 10° SE 05:35:21 18° E 05:38:19 10° NE visible
30 Jul 4.6 05:44:22 10° SSE 05:48:14 31° E 05:52:05 10° NNE visible
31 Jul 3.4 05:56:53 10° S 06:01:10 55° E 06:05:27 10° NNE visible
02 Aug 5.5 04:48:26 10° ESE 04:50:09 12° E 04:51:51 10° ENE visible
03 Aug 5.0 04:59:41 10° SE 05:02:58 21° E 05:06:16 10° NE visible
04 Aug 4.1 05:11:51 10° SSE 05:15:52 36° E 05:19:53 10° NNE visible
